Tracking 19709 objects as of 21-Jun-2019
HD Live streaming from Space Station
objects crossing your sky now

FENGYUN 1C DEB

Track FENGYUN 1C DEB now!
10-day predictions


NORAD ID: 30362
Int'l Code: 1999-025ABZ
Perigee: 829.2 km
Apogee: 999.8 km
Inclination: 99.0 °
Period: 103.1 minutes
Semi major axis: 7285 km
RCS: 0.04 m2 (small)
Launch date: May 10, 1999
Source: People's Republic of China (PRC)
Launch site: Taiyaun Space Center, China (TSC)

Note: This is SATELLITE DEBRIS
aabbcc
Your satellite tracking list
Your tracking list is empty




NASA's NSSDC Master Catalog

Two Line Element Set (TLE):
1 30362U 99025ABZ 19171.15791116  .00000430  00000-0  32528-3 0  9999
2 30362  99.0458  85.6573 0117111  47.0798 314.0120 13.96094950630312
Source of the keplerian elements: AFSPC